Weather History for West Palm Beach, FL

Change the Weather History Date:

Tuesday, December 6, 2011

  Actual Average Record
Temperature  
Mean Temperature 74 °F 70 °F  
Max Temperature 79 °F 77 °F 87 °F (1972)
Min Temperature 68 °F 62 °F 41 °F (1968)
Degree Days  
Heating Degree Days 0 1  
Month to date heating degree days 2 6  
Since 1 July heating degree days 3 18  
Cooling Degree Days 9 6  
Month to date cooling degree days 48 36  
Year to date cooling degree days 4618 3902  
Growing Degree Days 26 (Base 50)    
Moisture  
Dew Point 63 °F    
Average Humidity 66    
Maximum Humidity 73    
Minimum Humidity 58    
Precipitation  
Precipitation 0.00 in 0.10 in 3.97 in (1986)
Month to date precipitation 0.02 0.66  
Year to date precipitation 47.01 59.61  
Snow  
Snow 0.00 in - - ()
Month to date snowfall 0.0  
Since 1 July snowfall 0.0  
Snow Depth 0.00 in    
Sea Level Pressure  
Sea Level Pressure 30.07 in    
Wind  
Wind Speed 8 mph (East)    
Max Wind Speed 15 mph    
Max Gust Speed 17 mph    
Visibility 10 miles    
Events      
T = Trace of Precipitation, MM = Missing Value Source: NWS Daily Summary

Daily Weather History Graph

Daily Weather History Graph

Search for Another Location

Airport:

Trip Planner

Search our weather history database for the weather conditions in past years. The results will help you decide how hot, cold, wet, or windy it might be!

Date:

Astronomy

Dec. 06, 2011 Rise Set
Actual Time 6:55 AM EST 5:27 PM EST
Civil Twilight 6:29 AM EST 5:52 PM EST
Nautical Twilight 6:01 AM EST 6:21 PM EST
Astronomical Twilight 5:32 AM EST 6:49 PM EST
Moon 2:44 PM EST (12/6) 3:24 AM EST (12/6)
Length of Visible Light 11h 22m
Length of Day
10h 32m
Waxing Gibbous, 86% of the Moon is Illuminated
Dec 6
Waxing Gibbous
Dec 10
Full
Dec 17
Last Quarter
Dec 24
New
Jan 1
First Quarter

Hourly Weather History & Observations

Time (EST) Temp. Dew Point Humidity Pressure Visibility Wind Dir Wind Speed Gust Speed Precip Events Conditions
12:53 AM 73.0 °F 61.0 °F 66% 30.09 in 10.0 mi East 10.4 mph - N/A   Scattered Clouds
1:53 AM 73.0 °F 61.0 °F 66% 30.08 in 10.0 mi East 8.1 mph - N/A   Scattered Clouds
2:53 AM 73.9 °F 60.1 °F 62% 30.07 in 10.0 mi East 8.1 mph - N/A   Mostly Cloudy
3:53 AM 73.9 °F 59.0 °F 59% 30.06 in 10.0 mi ENE 10.4 mph - N/A   Mostly Cloudy
4:53 AM 73.0 °F 62.1 °F 68% 30.06 in 10.0 mi East 9.2 mph - N/A   Mostly Cloudy
5:53 AM 73.0 °F 61.0 °F 66% 30.07 in 10.0 mi East 9.2 mph - N/A   Mostly Cloudy
6:53 AM 73.0 °F 61.0 °F 66% 30.08 in 10.0 mi East 6.9 mph - N/A   Mostly Cloudy
7:53 AM 73.0 °F 61.0 °F 66% 30.09 in 10.0 mi East 8.1 mph - N/A   Scattered Clouds
8:53 AM 75.9 °F 60.1 °F 58% 30.11 in 10.0 mi East 12.7 mph - N/A   Scattered Clouds
9:53 AM 75.9 °F 63.0 °F 64% 30.12 in 10.0 mi East 11.5 mph - N/A   Mostly Cloudy
10:53 AM 78.1 °F 64.0 °F 62% 30.12 in 10.0 mi East 11.5 mph - N/A   Mostly Cloudy
11:53 AM 78.1 °F 64.0 °F 62% 30.09 in 10.0 mi East 12.7 mph - N/A   Mostly Cloudy
12:53 PM 78.1 °F 64.0 °F 62% 30.06 in 10.0 mi East 11.5 mph - N/A   Mostly Cloudy
1:53 PM 78.8 °F 63.3 °F 59% 30.04 in 10.0 mi ESE 10.4 mph - N/A   Scattered Clouds
2:53 PM 78.1 °F 64.9 °F 64% 30.04 in 10.0 mi East 9.2 mph - N/A   Scattered Clouds
3:53 PM 77.0 °F 64.9 °F 66% 30.03 in 10.0 mi East 8.1 mph - N/A   Scattered Clouds
4:53 PM 75.9 °F 64.9 °F 69% 30.03 in 10.0 mi East 6.9 mph - N/A   Scattered Clouds
5:53 PM 75.0 °F 64.0 °F 69% 30.04 in 10.0 mi ENE 6.9 mph - N/A   Mostly Cloudy
6:53 PM 73.9 °F 64.9 °F 73% 30.06 in 10.0 mi East 8.1 mph - N/A   Scattered Clouds
7:53 PM 73.9 °F 64.0 °F 71% 30.07 in 10.0 mi East 5.8 mph - N/A   Scattered Clouds
8:53 PM 73.9 °F 63.0 °F 68% 30.08 in 10.0 mi East 6.9 mph - N/A   Mostly Cloudy
9:53 PM 73.0 °F 63.0 °F 71% 30.08 in 10.0 mi East 6.9 mph - N/A   Scattered Clouds
10:53 PM 73.0 °F 64.0 °F 73% 30.08 in 10.0 mi NE 3.5 mph - N/A   Mostly Cloudy
11:53 PM 68.0 °F 63.0 °F 84% 30.06 in 10.0 mi Calm Calm - N/A   Mostly Cloudy